Princeton, MN

3:23 AM CDT on July 28, 2017 (GMT -0500)
Princeton Municipal

Weather History for KPNM - October, 2012

Change the Weather History Date:

Wednesday, October 17, 2012

  Actual Average Record
Temperature  
Mean Temperature 55 °F -  
Max Temperature 64 °F 54 °F 66 °F (2005)
Min Temperature 46 °F 33 °F 23 °F (2015)
Degree Days  
Heating Degree Days 10    
Growing Degree Days 5 (Base 50)    
Moisture  
Dew Point 45 °F    
Average Humidity 76    
Maximum Humidity 93    
Minimum Humidity 52    
Precipitation  
Precipitation 0.00 in - - ()
Sea Level Pressure  
Sea Level Pressure 29.22 in    
Wind  
Wind Speed 7 mph (South)    
Max Wind Speed 22 mph    
Max Gust Speed 31 mph    
Visibility 10 miles    
Events Rain    
Averages and records for this station are not official NWS values.
T = Trace of Precipitation, MM = Missing Value Source: NWS Daily Summary

Daily Weather History Graph

Daily Weather History Graph

Search for Another Location

Airport or City:

Trip Planner

Search our weather history database for the weather conditions in past years. The results will help you decide how hot, cold, wet, or windy it might be!

Date:

Astronomy

Oct. 17, 2012 Rise Set
Actual Time 7:34 AM CDT 6:24 PM CDT
Civil Twilight 7:04 AM CDT 6:54 PM CDT
Nautical Twilight 6:29 AM CDT 7:28 PM CDT
Astronomical Twilight 5:55 AM CDT 8:03 PM CDT
Moon 10:18 AM CDT (10/17) 7:51 PM CDT (10/17)
Length of Visible Light 11h 50m
Length of Day
10h 50m
Waxing Crescent, 7% of the Moon is Illuminated
Oct 17
Waxing Crescent
Oct 21
First Quarter
Oct 29
Full
Nov 6
Last Quarter
Nov 13
New

Hourly Weather History & Observations

Time (CDT) Temp. Windchill Dew Point Humidity Pressure Visibility Wind Dir Wind Speed Gust Speed Precip Events Conditions
12:13 AM 51.8 °F - 46.4 °F 82% 29.36 in 10.0 mi ESE 5.8 mph - N/A   Clear
12:33 AM 51.8 °F - 46.4 °F 82% 29.36 in 10.0 mi ESE 4.6 mph - N/A   Clear
12:53 AM 51.8 °F - 46.4 °F 82% 29.35 in 10.0 mi Calm Calm - N/A   Clear
1:13 AM 50.0 °F - 46.4 °F 87% 29.35 in 10.0 mi East 3.5 mph - N/A   Clear
1:33 AM 50.0 °F - 46.4 °F 87% 29.34 in 10.0 mi Calm Calm - N/A   Clear
1:53 AM 50.0 °F - 46.4 °F 87% 29.35 in 10.0 mi Calm Calm - N/A   Clear
2:13 AM 48.2 °F - 46.4 °F 93% 29.34 in 10.0 mi Calm Calm - N/A   Clear
2:33 AM 48.2 °F - 44.6 °F 87% 29.33 in 10.0 mi Calm Calm - N/A   Clear
2:53 AM 48.2 °F - 46.4 °F 93% 29.32 in 10.0 mi East 3.5 mph - N/A   Clear
3:13 AM 48.2 °F - 46.4 °F 93% 29.31 in 10.0 mi East 3.5 mph - N/A   Clear
3:53 AM 48.2 °F - 46.4 °F 93% 29.30 in 10.0 mi SE 4.6 mph - N/A   Clear
4:13 AM 48.2 °F - 44.6 °F 87% 29.29 in 7.0 mi East 3.5 mph - N/A   Clear
4:33 AM 48.2 °F - 46.4 °F 93% 29.28 in 10.0 mi East 4.6 mph - N/A   Clear
4:53 AM 48.2 °F - 44.6 °F 87% 29.28 in 7.0 mi ESE 5.8 mph - N/A   Clear
5:12 AM 48.2 °F - 46.4 °F 93% 29.26 in 7.0 mi East 6.9 mph - N/A   Clear
5:33 AM 48.2 °F - 46.4 °F 93% 29.24 in 10.0 mi East 6.9 mph - N/A   Unknown
5:53 AM 48.2 °F - 46.4 °F 93% 29.22 in 10.0 mi East 5.8 mph - N/A   Unknown
6:12 AM 50.0 °F - 46.4 °F 87% 29.22 in 10.0 mi East 4.6 mph - N/A   Unknown
6:33 AM 50.0 °F - 46.4 °F 87% 29.22 in 10.0 mi ESE 6.9 mph - N/A   Unknown
6:53 AM 50.0 °F - 46.4 °F 87% 29.21 in 10.0 mi East 6.9 mph - N/A   Unknown
7:12 AM 50.0 °F - 46.4 °F 87% 29.19 in 10.0 mi East 6.9 mph - N/A   Unknown
7:33 AM 51.8 °F - 46.4 °F 82% 29.16 in 10.0 mi East 8.1 mph - N/A   Unknown
7:53 AM 51.8 °F - 46.4 °F 82% 29.15 in 10.0 mi East 8.1 mph - N/A   Light Drizzle
8:13 AM 51.8 °F - 46.4 °F 82% 29.15 in 10.0 mi East 9.2 mph - N/A   Unknown
8:33 AM 51.8 °F - 46.4 °F 82% 29.15 in 10.0 mi ESE 5.8 mph - N/A   Light Drizzle
8:53 AM 51.8 °F - 46.4 °F 82% 29.15 in 7.0 mi ESE 9.2 mph - N/A Rain Light Rain
9:13 AM 53.6 °F - 48.2 °F 82% 29.14 in 10.0 mi ESE 11.5 mph - N/A Rain Light Rain
9:33 AM 53.6 °F - 46.4 °F 77% 29.13 in 7.0 mi ESE 10.4 mph - N/A   Unknown
9:53 AM 55.4 °F - 46.4 °F 72% 29.11 in 5.0 mi SE 10.4 mph 20.7 mph N/A   Haze
10:13 AM 55.4 °F - 46.4 °F 72% 29.10 in 7.0 mi ESE 11.5 mph - N/A   Unknown
10:33 AM 57.2 °F - 48.2 °F 72% 29.10 in 10.0 mi SE 12.7 mph 18.4 mph N/A   Unknown
10:53 AM 59.0 °F - 46.4 °F 63% 29.10 in 10.0 mi SE 16.1 mph 21.9 mph N/A   Unknown
11:13 AM 60.8 °F - 48.2 °F 63% 29.10 in 10.0 mi SSE 13.8 mph 19.6 mph N/A   Unknown
11:33 AM 60.8 °F - 48.2 °F 63% 29.09 in 10.0 mi SSE 13.8 mph 18.4 mph N/A   Unknown
11:53 AM 62.6 °F - 46.4 °F 55% 29.10 in 10.0 mi South 21.9 mph 27.6 mph N/A   Unknown
12:13 PM 64.4 °F - 46.4 °F 52% 29.09 in 10.0 mi South 15.0 mph 25.3 mph N/A   Clear
12:33 PM 64.4 °F - 46.4 °F 52% 29.11 in 10.0 mi SSW 19.6 mph 28.8 mph N/A   Scattered Clouds
12:53 PM 60.8 °F - 48.2 °F 63% 29.13 in 10.0 mi WSW 20.7 mph 31.1 mph N/A   Mostly Cloudy
1:13 PM 57.2 °F - 48.2 °F 72% 29.14 in 10.0 mi SW 13.8 mph 28.8 mph N/A   Unknown
1:30 PM 55.4 °F - 48.2 °F 77% 29.16 in 10.0 mi WSW 16.1 mph 27.6 mph N/A   Unknown
1:53 PM 53.6 °F - 46.4 °F 77% 29.18 in 10.0 mi SW 20.7 mph 25.3 mph N/A   Unknown
2:13 PM 53.6 °F - 46.4 °F 77% 29.19 in 10.0 mi SW 13.8 mph 20.7 mph N/A   Unknown
2:32 PM 53.6 °F - 44.6 °F 72% 29.19 in 10.0 mi WSW 15.0 mph 23.0 mph N/A   Unknown
2:53 PM 55.4 °F - 44.6 °F 67% 29.19 in 10.0 mi SW 15.0 mph 20.7 mph N/A   Unknown
3:13 PM 55.4 °F - 44.6 °F 67% 29.20 in 10.0 mi SW 10.4 mph - N/A   Unknown
3:33 PM 55.4 °F - 44.6 °F 67% 29.20 in 10.0 mi SW 9.2 mph - N/A   Unknown
3:53 PM 55.4 °F - 42.8 °F 63% 29.21 in 10.0 mi SW 16.1 mph 20.7 mph N/A   Unknown
4:12 PM 55.4 °F - 42.8 °F 63% 29.21 in 10.0 mi SW 15.0 mph - N/A   Unknown
4:33 PM 55.4 °F - 42.8 °F 63% 29.22 in 10.0 mi SW 10.4 mph 20.7 mph N/A   Unknown
4:53 PM 55.4 °F - 41.0 °F 58% 29.23 in 10.0 mi SW 10.4 mph 16.1 mph N/A   Unknown
5:12 PM 55.4 °F - 41.0 °F 58% 29.22 in 10.0 mi SSW 9.2 mph - N/A   Unknown
5:33 PM 55.4 °F - 41.0 °F 58% 29.23 in 10.0 mi SSW 10.4 mph - N/A   Unknown
5:53 PM 55.4 °F - 41.0 °F 58% 29.23 in 10.0 mi SSW 5.8 mph - N/A   Unknown
6:12 PM 55.4 °F - 41.0 °F 58% 29.23 in 10.0 mi SSW 6.9 mph - N/A   Unknown
6:33 PM 53.6 °F - 42.8 °F 67% 29.23 in 10.0 mi South 8.1 mph - N/A   Unknown
6:53 PM 53.6 °F - 42.8 °F 67% 29.24 in 10.0 mi South 6.9 mph - N/A   Unknown
7:12 PM 51.8 °F - 42.8 °F 71% 29.25 in 10.0 mi South 5.8 mph - N/A   Unknown
7:33 PM 51.8 °F - 44.6 °F 76% 29.26 in 10.0 mi West 11.5 mph 19.6 mph N/A   Unknown
7:52 PM 51.8 °F - 44.6 °F 76% 29.26 in 10.0 mi SW 13.8 mph 19.6 mph N/A   Unknown
8:13 PM 48.2 °F - 44.6 °F 87% 29.27 in 7.0 mi WSW 16.1 mph 21.9 mph N/A Rain Light Rain
8:33 PM 46.4 °F 41.5 °F 42.8 °F 87% 29.27 in 10.0 mi WSW 10.4 mph 16.1 mph N/A   Unknown
8:53 PM 46.4 °F 42.4 °F 41.0 °F 81% 29.28 in 10.0 mi WSW 8.1 mph - N/A   Unknown
9:13 PM 46.4 °F 41.9 °F 39.2 °F 76% 29.27 in 10.0 mi West 9.2 mph - N/A   Unknown
9:33 PM 46.4 °F 42.4 °F 39.2 °F 76% 29.28 in 10.0 mi WSW 8.1 mph - N/A   Unknown
9:53 PM 46.4 °F 45.2 °F 39.2 °F 76% 29.27 in 10.0 mi WSW 3.5 mph - N/A   Unknown
10:13 PM 46.4 °F 44.3 °F 39.2 °F 76% 29.26 in 10.0 mi WSW 4.6 mph - N/A   Unknown
10:33 PM 46.4 °F - 39.2 °F 76% 29.26 in 10.0 mi Calm Calm - N/A   Unknown
10:53 PM 46.4 °F - 39.2 °F 76% 29.25 in 10.0 mi Calm Calm - N/A   Unknown
11:13 PM 46.4 °F 44.3 °F 39.2 °F 76% 29.26 in 10.0 mi SW 4.6 mph - N/A   Unknown
11:33 PM 46.4 °F 43.5 °F 41.0 °F 81% 29.24 in 10.0 mi WSW 5.8 mph - N/A   Unknown
11:53 PM 46.4 °F 44.3 °F 39.2 °F 76% 29.24 in 10.0 mi SW 4.6 mph - N/A   Unknown